This is the latest recevied weather packets stored in our database for station/object N9MXT-13. If no packets are shown the sender has not sent any weather packets the latest 10 day(s).
| Time | Temp. | Humidity | Pressure | Rain* | Wind** | Luminosity | Snow |
|---|---|---|---|---|---|---|---|
| 1778066399 | 3.33° C | 83% | 1012.5 hPa | 0 mm | - | - | - |
| 1778065799 | 2.78° C | 80% | 1012.5 hPa | 0 mm | - | - | - |
| 1778064899 | 2.78° C | 79% | 1012.5 hPa | 0 mm | - | - | - |
| 1778063999 | 2.78° C | 78% | 1012.1 hPa | 0 mm | - | - | - |
| 1778062799 | 3.33° C | 77% | 1011.9 hPa | 0 mm | - | - | - |
| 1778059501 | 3.89° C | 74% | 1011.8 hPa | 0 mm | - | - | - |
| 1778058599 | 3.89° C | 73% | 1011.8 hPa | 0 mm | - | - | - |
| 1778056199 | 4.44° C | 70% | 1011.8 hPa | 0 mm | - | - | - |
| 1778053499 | 6.11° C | 67% | 1011.3 hPa | 0 mm | - | - | - |
| 1778052599 | 6.11° C | 61% | 1011.4 hPa | 0 mm | - | - | - |
| 1778051399 | 7.22° C | 59% | 1011.3 hPa | 0 mm | - | - | - |
| 1778045997 | 8.33° C | 54% | 1011.3 hPa | 0 mm | - | - | - |
| 1778043001 | 8.89° C | 53% | 1010.9 hPa | 0 mm | - | - | - |
| 1778042101 | 8.89° C | 53% | 1011.1 hPa | 0 mm | - | - | - |
| 1778040301 | 9.44° C | 51% | 1010.8 hPa | 0 mm | - | - | - |
| 1778037601 | 10° C | 50% | 1010.2 hPa | 0 mm | - | - | - |
| 1778037000 | 10.56° C | 50% | 1010.2 hPa | 0 mm | - | - | - |
| 1778035801 | 10.56° C | 51% | 1010.2 hPa | 0 mm | - | - | - |
| 1778034001 | 10.56° C | 51% | 1009.9 hPa | 0 mm | - | - | - |
| 1778033700 | 10.56° C | 51% | 1009.9 hPa | 0 mm | - | - | - |
| 1778033100 | 10.56° C | 49% | 1009.7 hPa | 0 mm | - | - | - |
| 1778032500 | 10.56° C | 48% | 1009.5 hPa | 0 mm | - | - | - |
| 1778031900 | 10.56° C | 49% | 1009.3 hPa | 0 mm | - | - | - |
| 1778031601 | 11.11° C | 48% | 1009.1 hPa | 0 mm | - | - | - |
| 1778026800 | 12.22° C | 44% | 1008.4 hPa | 0 mm | - | - | - |
* Rain latest hour (hover to see other rain measurements)
** Current wind speed in m/s (hover to see current wind gust speed)